Weather History for Novato, CA

Change the Weather History Date:

Thursday, June 6, 2013

  Actual Average (KAPC) Record (KAPC)
Temperature  
Mean Temperature 65 °F 63 °F  
Max Temperature 80 °F 77 °F 89 °F (2001)
Min Temperature 50 °F 49 °F 36 °F (2005)
Degree Days  
Heating Degree Days 0    
Month to date heating degree days  
Since 1 June heating degree days  
Since 1 July heating degree days  
Cooling Degree Days 0    
Month to date cooling degree days  
Year to date cooling degree days  
Since 1 June cooling degree days  
Growing Degree Days 15 (Base 50)    
Moisture  
Dew Point 53 °F    
Average Humidity 81    
Maximum Humidity 100    
Minimum Humidity 42    
Precipitation  
Precipitation 0.02 in - 0.48 in (1936)
Month to date precipitation  
Year to date precipitation  
Since 1 July precipitation  
Sea Level Pressure  
Sea Level Pressure 29.92 in    
Wind  
Wind Speed 5 mph (North)    
Max Wind Speed 16 mph    
Max Gust Speed 21 mph    
Visibility 10 miles    
Events      
T = Trace of Precipitation, MM = Missing Value Source: NWS Daily Summary

Daily Weather History Graph

Daily Weather History Graph

Search for Another Location

Airport:

Trip Planner

Search our weather history database for the weather conditions in past years. The results will help you decide how hot, cold, wet, or windy it might be!

Date:

Astronomy

Jun. 06, 2013 Rise Set
Actual Time 5:47 AM PDT 8:30 PM PDT
Civil Twilight 5:16 AM PDT 9:02 PM PDT
Nautical Twilight 4:37 AM PDT 9:41 PM PDT
Astronomical Twilight 3:53 AM PDT 10:25 PM PDT
Moon 4:31 AM PDT (6/6) 6:58 PM PDT (6/6)
Length of Visible Light 15h 45m
Length of Day
14h 43m
Waning Crescent, 3% of the Moon is Illuminated
Jun 6
Waning Crescent
Jun 8
New
Jun 16
First Quarter
Jun 23
Full
Jun 29
Last Quarter

Hourly Weather History & Observations

Time (PDT) Temp. Heat Index Dew Point Humidity Pressure Visibility Wind Dir Wind Speed Gust Speed Precip Events Conditions
12:15 AM 50.0 °F - 50.0 °F 100% 29.97 in 10.0 mi NNW 6.9 mph - N/A   Scattered Clouds
12:35 AM 51.8 °F - 51.8 °F 100% 29.97 in 10.0 mi NNE 4.6 mph - N/A   Mostly Cloudy
12:55 AM 51.8 °F - 51.8 °F 100% 29.97 in 10.0 mi Calm Calm - N/A   Overcast
1:15 AM 51.8 °F - 51.8 °F 100% 29.96 in 10.0 mi NNW 3.5 mph - N/A   Overcast
1:35 AM 51.8 °F - 51.8 °F 100% 29.96 in 10.0 mi Calm Calm - N/A   Overcast
1:55 AM 51.8 °F - 51.8 °F 100% 29.96 in 10.0 mi North 4.6 mph - N/A   Overcast
2:15 AM 51.8 °F - 51.8 °F 100% 29.96 in 10.0 mi SW 3.5 mph - N/A   Overcast
2:35 AM 51.8 °F - 51.8 °F 100% 29.96 in 10.0 mi Calm Calm - N/A   Overcast
2:55 AM 51.8 °F - 51.8 °F 100% 29.96 in 10.0 mi Calm Calm - N/A   Overcast
3:15 AM 51.8 °F - 51.8 °F 100% 29.95 in 10.0 mi North 6.9 mph - N/A   Overcast
3:35 AM 51.8 °F - 51.8 °F 100% 29.95 in 10.0 mi NNW 3.5 mph - N/A   Overcast
3:55 AM 51.8 °F - 51.8 °F 100% 29.95 in 10.0 mi Calm Calm - N/A   Overcast
4:15 AM 51.8 °F - 51.8 °F 100% 29.95 in 10.0 mi North 3.5 mph - N/A   Overcast
4:35 AM 51.8 °F - 51.8 °F 100% 29.95 in 10.0 mi Calm Calm - N/A   Overcast
4:55 AM 51.8 °F - 51.8 °F 100% 29.95 in 10.0 mi NNW 4.6 mph - N/A   Overcast
5:15 AM 51.8 °F - 51.8 °F 100% 29.95 in 10.0 mi Calm Calm - N/A   Overcast
5:35 AM 51.8 °F - 51.8 °F 100% 29.95 in 10.0 mi North 3.5 mph - N/A   Overcast
5:55 AM 51.8 °F - 51.8 °F 100% 29.96 in 10.0 mi Calm Calm - N/A   Overcast
6:15 AM 51.8 °F - 51.8 °F 100% 29.96 in 10.0 mi NNW 3.5 mph - N/A   Overcast
6:35 AM 51.8 °F - 51.8 °F 100% 29.96 in 10.0 mi North 4.6 mph - N/A   Overcast
6:55 AM 51.8 °F - 51.8 °F 100% 29.96 in 10.0 mi Calm Calm - N/A   Overcast
7:15 AM 51.8 °F - 51.8 °F 100% 29.96 in 10.0 mi Calm Calm - N/A   Overcast
7:35 AM 53.6 °F - 53.6 °F 100% 29.96 in 10.0 mi North 4.6 mph - N/A   Overcast
7:55 AM 53.6 °F - 53.6 °F 100% 29.97 in 10.0 mi North 3.5 mph - N/A   Overcast
8:15 AM 53.6 °F - 53.6 °F 100% 29.97 in 10.0 mi North 3.5 mph - N/A   Overcast
8:35 AM 53.6 °F - 53.6 °F 100% 29.97 in 10.0 mi North 4.6 mph - N/A   Overcast
8:55 AM 53.6 °F - 53.6 °F 100% 29.97 in 10.0 mi NW 3.5 mph - N/A   Overcast
9:15 AM 55.4 °F - 53.6 °F 94% 29.97 in 10.0 mi Calm Calm - N/A   Overcast
9:35 AM 57.2 °F - 53.6 °F 88% 29.97 in 10.0 mi Calm Calm - N/A   Overcast
9:55 AM 57.2 °F - 53.6 °F 88% 29.97 in 10.0 mi NE 3.5 mph - N/A   Overcast
10:15 AM 59.0 °F - 53.6 °F 82% 29.96 in 10.0 mi North 3.5 mph - N/A   Mostly Cloudy
10:35 AM 60.8 °F - 53.6 °F 77% 29.96 in 10.0 mi North 4.6 mph - N/A   Partly Cloudy
10:55 AM 62.6 °F - 53.6 °F 72% 29.95 in 10.0 mi Calm Calm - N/A   Clear
11:15 AM 64.4 °F - 53.6 °F 68% 29.95 in 10.0 mi NNE 6.9 mph - N/A   Clear
11:35 AM 64.4 °F - 53.6 °F 68% 29.95 in 10.0 mi ENE 4.6 mph - N/A   Clear
11:55 AM 66.2 °F - 55.4 °F 68% 29.94 in 10.0 mi NNE 8.1 mph - N/A   Clear
12:15 PM 68.0 °F - 55.4 °F 64% 29.94 in 10.0 mi NNE 12.7 mph - N/A   Clear
12:35 PM 71.6 °F - 55.4 °F 57% 29.93 in 10.0 mi North 12.7 mph - N/A   Clear
12:55 PM 71.6 °F - 55.4 °F 57% 29.92 in 10.0 mi North 11.5 mph 20.7 mph N/A   Clear
1:15 PM 73.4 °F - 55.4 °F 53% 29.91 in 10.0 mi NNE 13.8 mph - N/A   Clear
1:35 PM 75.2 °F - 55.4 °F 50% 29.91 in 10.0 mi North 12.7 mph - N/A   Clear
1:55 PM 77.0 °F - 55.4 °F 47% 29.90 in 10.0 mi NNE 11.5 mph - N/A   Clear
2:15 PM 78.8 °F - 55.4 °F 44% 29.89 in 10.0 mi North 12.7 mph 18.4 mph N/A   Clear
2:35 PM 78.8 °F - 55.4 °F 44% 29.89 in 10.0 mi North 13.8 mph - N/A   Clear
2:55 PM 80.6 °F 80.5 °F 55.4 °F 42% 29.88 in 10.0 mi North 12.7 mph 17.3 mph N/A   Clear
3:15 PM 80.6 °F 80.5 °F 55.4 °F 42% 29.87 in 10.0 mi North 13.8 mph - N/A   Clear
3:35 PM 80.6 °F 80.5 °F 55.4 °F 42% 29.86 in 10.0 mi North 16.1 mph - N/A   Clear
3:55 PM 80.6 °F 80.5 °F 55.4 °F 42% 29.86 in 10.0 mi North 13.8 mph - N/A   Clear
4:15 PM 78.8 °F - 55.4 °F 44% 29.86 in 10.0 mi North 15.0 mph - N/A   Clear
4:35 PM 78.8 °F - 55.4 °F 44% 29.85 in 10.0 mi NNW 13.8 mph - N/A   Clear
4:55 PM 77.0 °F - 55.4 °F 47% 29.85 in 10.0 mi West 5.8 mph 17.3 mph N/A   Clear
5:15 PM 77.0 °F - 53.6 °F 44% 29.85 in 10.0 mi NNW 9.2 mph 18.4 mph N/A   Clear
5:35 PM 75.2 °F - 53.6 °F 47% 29.86 in 10.0 mi SSW 4.6 mph - N/A   Clear
5:55 PM 75.2 °F - 53.6 °F 47% 29.85 in 10.0 mi NNW 9.2 mph - N/A   Clear
6:15 PM 71.6 °F - 53.6 °F 53% 29.85 in 10.0 mi NNW 12.7 mph - N/A   Clear
6:35 PM 68.0 °F - 53.6 °F 60% 29.85 in 10.0 mi North 16.1 mph - N/A   Clear
6:55 PM 64.4 °F - 51.8 °F 64% 29.86 in 10.0 mi North 12.7 mph - N/A   Clear
7:15 PM 64.4 °F - 51.8 °F 64% 29.86 in 10.0 mi North 8.1 mph - N/A   Clear
7:35 PM 60.8 °F - 53.6 °F 77% 29.86 in 10.0 mi North 10.4 mph - N/A   Clear
7:55 PM 57.2 °F - 53.6 °F 88% 29.87 in 10.0 mi North 12.7 mph - N/A   Clear
8:15 PM 55.4 °F - 53.6 °F 94% 29.88 in 10.0 mi North 10.4 mph - N/A   Clear
8:35 PM 55.4 °F - 53.6 °F 94% 29.88 in 10.0 mi North 6.9 mph - N/A   Clear
8:55 PM 53.6 °F - 53.6 °F 100% 29.88 in 10.0 mi North 6.9 mph - N/A   Clear
9:15 PM 53.6 °F - 53.6 °F 100% 29.89 in 10.0 mi North 6.9 mph - N/A   Clear
9:35 PM 53.6 °F - 53.6 °F 100% 29.89 in 10.0 mi North 4.6 mph - N/A   Unknown
9:55 PM 51.8 °F - 51.8 °F 100% 29.90 in 10.0 mi North 4.6 mph - N/A   Unknown
10:15 PM 51.8 °F - 51.8 °F 100% 29.90 in 10.0 mi NNW 5.8 mph - N/A   Unknown
10:35 PM 50.0 °F - 50.0 °F 100% 29.91 in 10.0 mi North 3.5 mph - N/A   Unknown
10:55 PM 50.0 °F - 50.0 °F 100% 29.91 in 10.0 mi NE 3.5 mph - N/A   Unknown
11:15 PM 50.0 °F - 50.0 °F 100% 29.90 in 10.0 mi Calm Calm - 0.02 in   Unknown
11:35 PM 50.0 °F - 50.0 °F 100% 29.90 in 10.0 mi Calm Calm - 0.02 in   Unknown
11:55 PM 50.0 °F - 50.0 °F 100% 29.90 in 10.0 mi Calm Calm - 0.02 in   Unknown